COSMOS 2251 DEB, 36551

Orbit data source: Space-Track

COSMOS 2251 DEB, 36551 is space debris in LEO originally from a launch on Wed, 16 Jun 1993 UTC launched from the Plesetsk Missile And Space Complex (PKMTR). The debris from Iridium 33, an American commercial communications satellite, has been tracked extensively since its accidental collision with the defunct Russian satellite Cosmos 2251 in 2009. This event, occurring at high speed in low Earth orbit (LEO), generated thousands of pieces of space debris, significantly increasing the risk of further collisions. The Iridium 33 debris cloud has impacted space traffic management and orbital debris mitigation strategies, making it a subject of ongoing study in space situational awareness.

Loading next visibility...
Identifier
36551, 1993-036BDM
Orbit
LEO
Country
Flag of CISCIS
Related business
Manufacturer
Unknown
Mission
Spacecraft
Bus & Motor
Unknown
Mass
Unknown
Launch date (UTC)
1993-06-16 (33 years ago)
Launch vehicle
Unknown
Launch site
Plesetsk Missile And Space Complex (PKMTR)
Object type
Payload
Rocket body
Debris
Shape & HBR
Unknown shape, 0.1 m
Radar Cross Section
Small (<0.1 m²)

Expand to show TLE details & history
Last TLE update: 23 hours ago

TLE from 23 hours ago
0 COSMOS 2251 DEB
1 36551U 93036BDM 26262.95533117  .00015774  00000-0  83570-3 0  9993
2 36551  73.8975 149.5644 0031509  37.8354 322.5046 15.14961871711747
Epoch: 2026-09-19T22:55Z
TLE epoch observation values (Epoch: 2026-09-19T22:55:40.613Z)
Latitude
0.00002°
Longitude
166.78874°
Altitude
506.567 km
Speed
7.621 km/s
True Right ascension
09h 58m 15s
True Declination
0° 00' 00"
Sunlit
Object was in daylight at epoch
Visualization orbit readout
Latitude
Unknown
Longitude
Unknown
Altitude
Unknown
Speed
Unknown
Apparent Right ascension
Unknown
Apparent Declination
Unknown
Sunlit
N/A
Visualization observer readout
Local Sidereal Time
15:03:00
Azimuth
Unknown
Elevation
Unknown
Doppler factor
Unknown
Orbital elements
Apogee altitude
540.375 km
Perigee altitude
496.913 km
Semi-major axis
6,896.781 km
Eccentricity
0.00315
Inclination
73.8975°
RAAN
149.5644°
Arg. of periapsis
37.8354°
True anomaly
322.28413°
Mean anomaly
322.5046°
Eccentric anomaly
322.39443°
Mean motion
3.78943 °/min
Orbital period
95 mins
BSTAR
0.0008357

Documentation

Showing up to 5 results
|